sat.trackr.live / text

‹ back to catalog

STARLINK-33587

NORAD 63469 · 2025-070K

PAYLOAD ACTIVE UNKNOWN

§ Identity

Operator
Country
US
Launch date
2025-04-06
Launch site
AFETR
Launch vehicle
Mass (kg)
RCS (m²)

Purposes: comms

External: N2YO · Heavens-Above · Gunter

§ Orbital elements

Epoch: 2026-09-20T07:34:59.617920Z

Period
94.27 min
Inclination
43.0007°
Eccentricity
0.0000696
Mean motion
15.27587052 rev/d
Perigee alt
482.6 km
Apogee alt
483.5 km
Semi-major
6,861.2 km
B*
4.1311e-4
RAAN
240.5091°
Arg perigee
284.2688°
Mean anomaly
75.8087°
Rev number
8,274

§ Raw data

STARLINK-335871 63469U 25070K   26263.31596780  .00011125  00000+0  41311-3 0  99922 63469  43.0007 240.5091 0000696 284.2688  75.8087 15.27587052 82742

JSON: /api/v1/satellites/63469 · /tle

For live sub-satellite position, see the globe view (requires WebGL).

§ Visibility from observer

Set your observer location to see the next 7 days of passes ≥ 10°. The values pass through the URL so the page stays shareable.

No JS? Fill the form by hand. The geolocation button needs JavaScript.